Rockport, TX

7:02 AM CDT on October 24, 2017 (GMT -0500)
Aransas County

Weather History for KRKP - January, 2014

Change the Weather History Date:

Tuesday, January 28, 2014

  Actual Average Record
Temperature  
Mean Temperature 40 °F -  
Max Temperature 46 °F 69 °F 80 °F (1977)
Min Temperature 33 °F 49 °F 30 °F (1961)
Degree Days  
Heating Degree Days 26    
Moisture  
Dew Point 22 °F    
Average Humidity 56    
Maximum Humidity 85    
Minimum Humidity 33    
Precipitation  
Precipitation 0.00 in - - ()
Sea Level Pressure  
Sea Level Pressure 30.31 in    
Wind  
Wind Speed 16 mph (North)    
Max Wind Speed 22 mph    
Max Gust Speed 29 mph    
Visibility 10 miles    
Events Rain    
Averages and records for this station are not official NWS values.
T = Trace of Precipitation, MM = Missing Value Source: NWS Daily Summary

Daily Weather History Graph

Daily Weather History Graph

Search for Another Location

Airport or City:

Trip Planner

Search our weather history database for the weather conditions in past years. The results will help you decide how hot, cold, wet, or windy it might be!

Date:

Astronomy

Jan. 28, 2014 Rise Set
Actual Time 7:17 AM CST 6:05 PM CST
Civil Twilight 6:52 AM CST 6:30 PM CST
Nautical Twilight 6:24 AM CST 6:58 PM CST
Astronomical Twilight 5:56 AM CST 7:26 PM CST
Moon 4:56 AM CST (1/28) 3:59 PM CST (1/28)
Length of Visible Light 11h 37m
Length of Day
10h 47m
Waning Crescent, 7% of the Moon is Illuminated
Jan 28
Waning Crescent
Jan 30
New
Feb 6
First Quarter
Feb 14
Full
Feb 22
Last Quarter

Hourly Weather History & Observations

Time (CST) Temp. Windchill Dew Point Humidity Pressure Visibility Wind Dir Wind Speed Gust Speed Precip Events Conditions
12:53 AM 46.0 °F 39.3 °F 19.9 °F 35% 30.14 in 10.0 mi North 16.1 mph - N/A   Overcast
1:53 AM 46.0 °F 39.9 °F 18.0 °F 33% 30.13 in 10.0 mi North 13.8 mph 23.0 mph N/A   Overcast
2:53 AM 45.0 °F 37.9 °F 19.0 °F 36% 30.13 in 10.0 mi North 16.1 mph - N/A   Overcast
3:53 AM 44.1 °F 37.7 °F 18.0 °F 35% 30.15 in 10.0 mi North 12.7 mph - N/A   Overcast
4:53 AM 42.1 °F 34.9 °F 16.0 °F 35% 30.15 in 10.0 mi North 13.8 mph 23.0 mph N/A   Overcast
5:53 AM 41.0 °F 32.5 °F 17.1 °F 38% 30.19 in 10.0 mi North 17.3 mph 24.2 mph N/A   Overcast
6:53 AM 39.9 °F 30.5 °F 18.0 °F 41% 30.22 in 10.0 mi North 19.6 mph 26.5 mph N/A   Overcast
7:53 AM 39.0 °F 29.6 °F 19.0 °F 45% 30.25 in 10.0 mi North 18.4 mph 26.5 mph N/A   Overcast
8:53 AM 37.9 °F 27.9 °F 19.9 °F 48% 30.27 in 10.0 mi North 19.6 mph 28.8 mph N/A   Overcast
9:53 AM 37.0 °F 28.1 °F 21.0 °F 52% 30.33 in 10.0 mi North 15.0 mph 23.0 mph N/A   Overcast
10:53 AM 37.0 °F 27.4 °F 21.9 °F 54% 30.34 in 10.0 mi North 17.3 mph 26.5 mph N/A   Overcast
11:53 AM 36.0 °F 26.7 °F 24.1 °F 62% 30.36 in 10.0 mi North 15.0 mph 24.2 mph 0.00 in   Overcast
12:45 PM 35.6 °F 25.5 °F 26.6 °F 70% 30.34 in 10.0 mi North 17.3 mph 25.3 mph 0.00 in   Overcast
12:53 PM 35.1 °F 24.1 °F 26.1 °F 70% 30.35 in 10.0 mi North 19.6 mph - 0.00 in   Overcast
1:38 PM 33.8 °F 23.2 °F 26.6 °F 75% 30.34 in 10.0 mi North 17.3 mph 25.3 mph N/A   Overcast
1:53 PM 34.0 °F 23.0 °F 28.0 °F 79% 30.35 in 10.0 mi North 18.4 mph 21.9 mph 0.00 in   Overcast
2:53 PM 33.1 °F 22.2 °F 28.9 °F 85% 30.33 in 10.0 mi North 17.3 mph 25.3 mph 0.00 in Rain Light Rain
3:17 PM 33.8 °F 21.9 °F 26.6 °F 75% 30.33 in 10.0 mi North 21.9 mph 28.8 mph 0.00 in   Overcast
3:32 PM 33.8 °F 22.8 °F 26.6 °F 75% 30.32 in 10.0 mi North 18.4 mph - 0.00 in   Overcast
3:53 PM 34.0 °F 22.4 °F 25.0 °F 70% 30.32 in 10.0 mi North 20.7 mph 25.3 mph 0.00 in   Overcast
4:53 PM 35.1 °F 25.2 °F 21.9 °F 59% 30.35 in 10.0 mi North 16.1 mph - N/A   Overcast
5:53 PM 36.0 °F 27.1 °F 21.0 °F 55% 30.36 in 10.0 mi North 13.8 mph 26.5 mph N/A   Overcast
6:53 PM 35.1 °F 25.9 °F 17.1 °F 48% 30.39 in 10.0 mi North 13.8 mph - N/A   Overcast
7:53 PM 36.0 °F 26.7 °F 17.1 °F 46% 30.41 in 10.0 mi North 15.0 mph - N/A   Overcast
8:53 PM 35.1 °F 26.4 °F 21.9 °F 59% 30.44 in 10.0 mi North 12.7 mph - 0.00 in Rain Light Rain
9:53 PM 35.1 °F 26.4 °F 23.0 °F 61% 30.45 in 10.0 mi North 12.7 mph - 0.00 in   Overcast
10:53 PM 36.0 °F 28.0 °F 21.9 °F 57% 30.44 in 10.0 mi North 11.5 mph - N/A   Overcast
11:53 PM 37.0 °F 30.4 °F 23.0 °F 57% 30.45 in 10.0 mi NNW 9.2 mph - N/A   Overcast